VE3KSR Weather Reports


time (UTC)temp
C
wind
direction
speed
KPH
gust
KPH
rain 1hr
cm
rain 24hr
cm
rain mn
cm
humidity
%
barometer
mb
20260506044815 5 0 0.0 0.0 14.33 0.00 0.00 91 1017.5
20260506044314 5 0 0.0 0.0 14.33 0.00 0.00 91 1017.5
20260506043814 5 0 0.0 0.0 14.33 0.00 0.00 93 1017.5
20260506043314 5 0 0.0 0.0 14.33 0.00 0.00 96 1017.5
20260506042814 5 0 0.0 0.0 14.33 0.00 0.00 97 1017.4
20260506042314 5 0 0.0 0.0 14.33 0.00 0.00 98 1017.5
20260506041814 5 0 0.0 0.0 14.33 0.00 0.00 96 1017.7
20260506041314 5 0 0.0 0.0 14.33 0.00 0.00 95 1017.4
20260506040814 5 0 0.0 0.0 14.33 0.00 0.00 95 1017.4
20260506040314 5 0 0.0 0.0 14.33 0.00 0.00 95 1017.5
20260506035814 5 0 0.0 0.0 14.33 0.00 0.00 95 1017.6
20260506035315 5 0 0.0 0.0 14.33 0.00 0.00 95 1017.7
20260506034814 5 0 0.0 0.0 14.33 0.00 0.00 95 1017.7
20260506034314 5 0 0.0 0.0 14.33 0.00 0.00 94 1017.8
20260506033815 5 0 0.0 0.0 14.33 0.00 0.00 94 1017.7
20260506033314 5 0 0.0 0.0 14.33 0.00 0.00 94 1017.7
20260506032814 5 0 0.0 0.0 14.33 0.00 0.00 92 1017.4
20260506032314 5 0 0.0 0.0 14.33 0.00 0.00 93 1017.6
20260506031815 5 0 0.0 0.0 14.33 0.00 0.00 93 1017.6
20260506031314 5 0 0.0 0.0 14.33 0.00 0.00 92 1017.3
20260506030817 5 0 0.0 0.0 14.33 0.00 0.00 92 1017.2
20260506030314 5 0 0.0 0.0 14.33 0.00 0.00 92 1017.3
20260506025815 5 0 0.0 0.0 14.33 0.00 0.00 92 1017.1
20260506025315 5 0 0.0 0.0 14.33 0.00 0.00 93 1017.2
20260506024815 5 0 0.0 0.0 14.33 0.00 0.00 93 1017.3
20260506024314 5 0 0.0 0.0 14.33 0.00 0.00 93 1017.2
20260506023814 5 0 0.0 0.0 14.33 0.00 0.00 93 1017.2
20260506023315 5 0 0.0 0.0 14.33 0.00 0.00 93 1017.4
20260506022815 5 0 0.0 0.0 14.33 0.00 0.00 92 1017.5
20260506022315 5 0 0.0 0.0 14.33 0.00 0.00 92 1017.2
20260506021815 5 0 0.0 0.0 14.33 0.00 0.00 92 1017.5
20260506021315 5 0 0.0 0.0 14.33 0.00 0.00 93 1017.5
20260506020815 5 0 0.0 0.0 14.33 0.00 0.00 92 1017.3
20260506020316 5 0 0.0 0.0 14.33 0.00 0.00 92 1017.5
20260506015815 5 0 0.0 0.0 14.33 0.00 0.00 92 1017.5
20260506015316 5 0 0.0 0.0 14.33 0.00 0.00 92 1017.2
20260506014815 5 0 0.0 0.0 14.33 0.00 0.00 92 1017.4
20260506014316 5 0 0.0 0.0 14.33 0.00 0.00 92 1017.3
20260506013815 5 0 0.0 0.0 14.33 0.00 0.00 92 1017.3
20260506013315 5 0 0.0 0.0 14.33 0.00 0.00 91 1017.2
20260506012815 5 0 0.0 0.0 14.33 0.00 0.00 91 1017.1
20260506012317 5 0 0.0 0.0 14.33 0.00 0.00 91 1016.9
20260506011815 5 0 0.0 0.0 14.33 0.00 0.00 90 1016.9
20260506011315 5 0 0.0 0.0 14.33 0.00 0.00 89 1016.9
20260506010815 5 0 0.0 0.0 14.33 0.00 0.00 87 1016.8
20260506010315 5 0 0.0 0.0 14.33 0.00 0.00 88 1016.8
20260506005815 5 0 0.0 0.0 14.33 0.00 0.00 88 1016.8
20260506005315 5 0 0.0 0.0 14.33 0.00 0.00 88 1016.5
20260506004815 5 0 0.0 0.0 14.33 0.00 0.00 89 1016.4
20260506004315 5 0 0.0 0.0 14.33 0.00 0.00 89 1016.4
20260506003815 5 0 0.0 0.0 14.33 0.00 0.00 87 1016.1
20260506003315 5 0 0.0 0.0 14.33 0.00 0.00 88 1016.1
20260506002815 5 0 0.0 0.0 14.33 0.00 0.00 87 1016.1
20260506002315 5 0 0.0 0.0 14.33 0.00 0.00 87 1016.1
20260506001815 5 0 0.0 0.0 14.33 0.00 0.00 87 1016.0
20260506001315 5 0 0.0 0.0 14.33 0.00 0.00 86 1016.0
20260506000815 5 0 0.0 0.0 14.33 0.00 0.00 87 1016.0
20260506000316 5 0 0.0 0.0 14.33 0.00 0.00 87 1015.9
20260505235815 5 0 0.0 0.0 14.33 0.00 0.00 87 1016.0
20260505235316 5 0 0.0 0.0 14.33 0.00 0.00 87 1016.1
20260505234815 5 0 0.0 0.0 14.33 0.00 0.00 87 1015.9
20260505234315 5 0 0.0 0.0 14.33 0.00 0.00 87 1015.9
20260505233815 5 0 0.0 0.0 14.33 0.00 0.00 88 1016.0
20260505233315 5 0 0.0 0.0 14.33 0.00 0.00 87 1016.0
20260505232816 5 0 0.0 0.0 14.33 0.00 0.00 88 1015.9
20260505232315 5 0 0.0 0.0 14.33 0.00 0.00 87 1016.0
20260505231815 5 0 0.0 0.0 14.33 0.00 0.00 87 1015.8
20260505231315 5 0 0.0 0.0 14.33 0.00 0.00 87 1015.8
20260505230816 5 0 0.0 0.0 14.33 0.00 0.00 88 1015.8
20260505230315 5 0 0.0 0.0 14.33 0.00 0.00 88 1015.8
20260505225815 5 0 0.0 0.0 14.33 0.00 0.00 88 1015.7
20260505225315 5 0 0.0 0.0 14.33 0.00 0.00 88 1015.6
20260505224815 5 0 0.0 0.0 14.33 0.00 0.00 88 1015.5
20260505224316 5 0 0.0 0.0 14.33 0.00 0.00 88 1015.6
20260505223815 5 0 0.0 0.0 14.33 0.00 0.00 88 1015.6
20260505223315 5 0 0.0 0.0 14.33 0.00 0.00 89 1015.7
20260505222815 5 0 0.0 0.0 14.33 0.00 0.00 89 1015.8
20260505222318 5 0 0.0 0.0 14.33 0.00 0.00 88 1015.8
20260505221815 5 0 0.0 0.0 14.33 0.00 0.00 87 1015.9
20260505221315 5 0 0.0 0.0 14.33 0.00 0.00 88 1015.8
20260505220815 5 0 0.0 0.0 14.33 0.00 0.00 87 1015.8
20260505220315 5 0 0.0 0.0 14.33 0.00 0.00 87 1015.7
20260505215816 5 0 0.0 0.0 14.33 0.00 0.00 87 1015.7
20260505215315 5 0 0.0 0.0 14.33 0.00 0.00 87 1015.8
20260505214815 5 0 0.0 0.0 14.33 0.00 0.00 88 1015.8
20260505214315 5 0 0.0 0.0 14.33 0.00 0.00 89 1015.6
20260505213816 5 0 0.0 0.0 14.33 0.00 0.00 89 1015.7
20260505213317 5 0 0.0 0.0 14.33 0.00 0.00 90 1015.8
20260505212815 5 0 0.0 0.0 14.33 0.00 0.00 90 1015.7
20260505212315 5 0 0.0 0.0 14.33 0.00 0.00 90 1015.7
20260505211815 5 0 0.0 0.0 14.33 0.00 0.00 88 1015.6
20260505211317 5 0 0.0 0.0 14.33 0.00 0.00 89 1015.7
20260505210815 5 0 0.0 0.0 14.33 0.00 0.00 90 1015.6
20260505210317 5 0 0.0 0.0 14.33 0.00 0.00 90 1015.6
20260505205815 5 287 19.3 24.1 14.33 0.00 0.00 89 1015.8
20260505205315 5 277 17.7 24.1 14.33 0.00 0.00 87 1015.8
20260505204815 5 0 0.0 0.0 14.33 0.00 0.00 89 1015.7
20260505204316 5 0 0.0 0.0 14.33 0.00 0.00 91 1015.5
20260505203816 5 0 0.0 0.0 14.33 0.00 0.00 92 1015.4
20260505203316 5 0 0.0 0.0 14.33 0.00 0.00 92 1015.6
20260505202815 5 0 0.0 0.0 14.33 0.00 0.00 93 1015.4
20260505202318 5 0 0.0 0.0 14.33 0.00 0.00 93 1015.6
20260505201815 6 0 0.0 0.0 14.33 0.00 0.00 92 1015.4
20260505201317 6 0 0.0 0.0 14.33 0.00 0.00 92 1015.6
20260505200815 5 0 0.0 0.0 14.33 0.00 0.00 92 1015.3
20260505200315 5 280 20.9 24.1 14.33 0.00 0.00 92 1015.4
20260505195815 5 145 22.5 29.0 14.33 0.00 0.00 93 1015.4
20260505195316 5 281 20.9 25.7 14.33 0.00 0.00 94 1015.4
20260505194815 5 0 0.0 0.0 14.33 0.00 0.00 94 1015.3
20260505194315 5 0 0.0 0.0 14.33 0.00 0.00 94 1015.3
20260505193815 5 332 0.0 4.8 14.33 0.00 0.00 91 1015.2
20260505193315 5 0 0.0 0.0 14.33 0.00 0.00 93 1015.2
20260505192815 5 0 0.0 0.0 14.33 0.00 0.00 93 1015.1
20260505192315 5 0 0.0 0.0 14.33 0.00 0.00 94 1014.9
20260505191815 5 0 0.0 0.0 14.33 0.00 0.00 94 1015.2
20260505191316 4 0 0.0 0.0 14.33 0.00 0.00 95 1015.2
20260505190815 5 0 0.0 0.0 14.33 0.00 0.00 95 1015.1
20260505190316 6 332 1.6 9.7 14.33 0.00 0.00 94 1014.8
20260505185816 6 332 0.0 4.8 14.33 0.00 0.00 92 1014.8
20260505185316 6 0 0.0 0.0 14.33 0.00 0.00 88 1014.7
20260505184816 7 0 0.0 0.0 14.33 0.00 0.00 74 1014.5
20260505184316 7 0 0.0 0.0 14.33 0.00 0.00 84 1014.7
20260505183816 8 359 1.6 8.0 14.33 0.00 0.00 81 1014.6
20260505183316 8 357 17.7 35.4 14.33 0.00 0.00 80 1014.6
20260505182816 8 44 30.6 38.6 14.33 0.00 0.00 77 1014.0
20260505182318 8 314 25.7 33.8 14.33 0.00 0.00 74 1014.1
20260505181816 8 0 0.0 0.0 14.33 0.00 0.00 68 1014.2
20260505181316 8 0 0.0 0.0 14.33 0.00 0.00 67 1014.2
20260505180816 8 0 0.0 0.0 14.33 0.00 0.00 67 1014.4
20260505180316 8 0 0.0 0.0 14.33 0.00 0.00 65 1014.1
20260505175816 8 0 0.0 0.0 14.33 0.00 0.00 67 1014.0
20260505175316 8 330 0.0 6.4 14.33 0.00 0.00 66 1013.9
20260505174816 8 330 0.0 3.2 14.33 0.00 0.00 65 1013.8
20260505174316 8 0 0.0 0.0 14.33 0.00 0.00 65 1013.6
20260505173816 8 0 0.0 0.0 14.33 0.00 0.00 66 1013.5
20260505173316 8 0 0.0 0.0 14.33 0.00 0.00 66 1013.4
20260505172816 8 284 4.8 20.9 14.33 0.00 0.00 64 1013.6
20260505171316 8 0 0.0 0.0 14.33 0.00 0.00 66 1013.6
20260505170816 8 0 0.0 0.0 14.33 0.00 0.00 67 1013.7
20260505170316 8 0 0.0 0.0 14.33 0.00 0.00 66 1013.4
20260505165816 8 0 0.0 0.0 14.33 0.00 0.00 67 1013.5
20260505165316 8 0 0.0 0.0 14.33 0.00 0.00 66 1013.5
20260505164816 8 0 0.0 0.0 14.33 0.00 0.00 69 1013.4
20260505164316 8 0 0.0 0.0 14.33 0.00 0.00 68 1013.3
20260505163816 8 0 0.0 0.0 14.33 0.00 0.00 67 1013.3
20260505163316 8 284 0.0 4.8 14.33 0.00 0.00 69 1013.1
20260505162816 8 294 1.6 16.1 14.33 0.00 0.00 71 1013.2
20260505162316 8 0 0.0 0.0 14.33 0.00 0.00 69 1013.1
20260505161816 8 301 0.0 4.8 14.33 0.00 0.00 69 1013.1
20260505161316 8 0 0.0 0.0 14.33 0.00 0.00 70 1013.2
20260505160816 8 0 0.0 0.0 14.33 0.00 0.00 70 1013.2
20260505160316 8 0 0.0 0.0 14.33 0.00 0.00 71 1013.3
20260505153316 8 0 0.0 0.0 14.33 0.00 0.00 73 1013.0
20260505152816 8 0 0.0 0.0 14.33 0.00 0.00 73 1012.8
20260505152318 8 0 0.0 0.0 14.33 0.00 0.00 76 1012.9
20260505151816 8 0 0.0 0.0 14.33 0.00 0.00 76 1012.7
20260505151316 8 0 0.0 0.0 14.33 0.00 0.00 77 1012.2
20260505150816 8 0 0.0 0.0 14.33 0.00 0.00 77 1011.9
20260505150318 8 0 0.0 0.0 14.33 0.00 0.00 77 1012.0
20260505140317 7 0 0.0 0.0 14.33 0.00 0.00 89 1011.2
20260505124816 8 0 0.0 0.0 14.33 0.00 0.00 92 1010.5
20260505124316 9 0 0.0 0.0 14.33 0.00 0.00 91 1010.4
20260505123818 10 0 0.0 0.0 14.33 0.00 0.00 91 1010.2
20260505123316 10 291 9.7 22.5 14.33 0.00 0.00 91 1009.9
20260505122816 10 207 25.7 35.4 14.33 0.00 0.00 92 1009.8
20260505122320 10 353 20.9 38.6 14.33 0.00 0.00 92 1009.6
20260505121816 10 359 1.6 9.7 14.33 0.00 0.00 92 1009.7
20260505121316 10 359 1.6 9.7 14.33 0.00 0.00 92 1009.5
20260505120816 10 359 3.2 24.1 14.33 0.00 0.00 91 1009.4
20260505120316 10 8 3.2 29.0 14.33 0.00 0.00 91 1009.3
20260505115816 10 31 3.2 11.3 14.33 0.00 0.00 90 1009.1
20260505115317 10 359 1.6 9.7 14.33 0.00 0.00 90 1009.0
20260505114817 10 173 4.8 22.5 14.33 0.00 0.00 89 1008.7
20260505114317 11 359 4.8 20.9 14.33 0.00 0.00 89 1008.7
20260505113817 11 0 0.0 0.0 14.33 0.00 0.00 88 1008.6
20260505113317 11 0 0.0 0.0 14.33 0.00 0.00 87 1008.7
20260505112817 11 359 1.6 8.0 14.33 0.00 0.00 86 1008.7
20260505112317 11 0 0.0 0.0 14.33 0.00 0.00 86 1008.8
20260505111817 11 0 0.0 0.0 14.33 0.00 0.00 85 1008.8
20260505111317 11 359 1.6 11.3 14.33 0.00 0.00 85 1008.7
20260505110817 11 359 1.6 8.0 14.33 0.00 0.00 85 1008.7
20260505110317 11 359 1.6 4.8 14.33 0.00 0.00 84 1008.8
20260505101817 11 259 6.4 19.3 14.33 0.00 0.00 84 1007.7
20260505101319 11 0 0.0 0.0 14.33 0.00 0.00 85 1007.7
20260505100817 11 0 0.0 0.0 14.33 0.00 0.00 84 1007.4
20260505100317 11 0 0.0 0.0 14.33 0.00 0.00 85 1007.4
20260505095817 11 0 0.0 0.0 14.33 0.00 0.00 86 1007.5
20260505095318 10 0 0.0 0.0 14.33 0.00 0.00 85 1007.5
20260505094817 10 0 0.0 0.0 14.33 0.00 0.00 86 1007.3
20260505094317 10 0 0.0 0.0 14.33 0.00 0.00 86 1007.3
20260505093817 10 0 0.0 0.0 14.33 0.00 0.00 86 1007.3
20260505093318 10 0 0.0 0.0 14.33 0.00 0.00 86 1007.4
20260505092817 10 0 0.0 0.0 14.33 0.00 0.00 87 1007.1
20260505092318 10 0 0.0 0.0 14.33 0.00 0.00 88 1007.0
20260505091817 10 0 0.0 0.0 14.33 0.00 0.00 88 1007.0
20260505091317 10 0 0.0 0.0 14.33 0.00 0.00 87 1007.0
20260505090817 10 0 0.0 0.0 14.33 0.00 0.00 88 1007.2
20260505090317 10 0 0.0 0.0 14.33 0.00 0.00 87 1007.0
20260505085817 10 0 0.0 0.0 14.33 0.00 0.00 87 1007.2
20260505085317 10 0 0.0 0.0 14.33 0.00 0.00 86 1007.1
20260505084817 10 0 0.0 0.0 14.33 0.00 0.00 85 1007.0
20260505084317 10 0 0.0 0.0 14.33 0.00 0.00 85 1007.1
20260505083817 11 0 0.0 0.0 14.33 0.00 0.00 84 1006.9
20260505083318 11 0 0.0 0.0 14.33 0.00 0.00 84 1006.9
20260505082817 11 0 0.0 0.0 14.33 0.00 0.00 83 1006.9
20260505082317 11 0 0.0 0.0 14.33 0.00 0.00 83 1006.9
20260505081817 11 0 0.0 0.0 14.33 0.00 0.00 83 1006.9
20260505081317 11 0 0.0 0.0 14.33 0.00 0.00 82 1006.8
20260505080817 11 0 0.0 0.0 14.33 0.00 0.00 80 1006.9
20260505080317 11 0 0.0 0.0 14.33 0.00 0.00 80 1006.8
20260505075817 11 0 0.0 0.0 14.33 0.00 0.00 83 1006.6
20260505075317 11 0 0.0 0.0 14.33 0.00 0.00 80 1007.0
20260505074817 11 0 0.0 0.0 14.33 0.00 0.00 82 1007.0
20260505074317 11 0 0.0 0.0 14.33 0.00 0.00 82 1007.1
20260505073817 11 0 0.0 0.0 14.33 0.00 0.00 81 1007.1
20260505073317 11 0 0.0 0.0 14.33 0.00 0.00 80 1007.1
20260505072817 11 0 0.0 0.0 14.33 0.00 0.00 80 1007.1
20260505072317 11 0 0.0 0.0 14.33 0.00 0.00 80 1007.3
20260505071817 11 0 0.0 0.0 14.33 0.00 0.00 79 1007.1
20260505071317 11 0 0.0 0.0 14.33 0.00 0.00 78 1007.0
20260505070817 11 0 0.0 0.0 14.33 0.00 0.00 79 1007.1
20260505070318 11 0 0.0 0.0 14.33 0.00 0.00 78 1007.3
20260505065817 11 0 0.0 0.0 14.33 0.00 0.00 78 1007.3
20260505065320 11 0 0.0 0.0 14.33 0.00 0.00 79 1007.3
20260505064817 11 0 0.0 0.0 14.33 0.00 0.00 80 1007.3
20260505064317 11 0 0.0 0.0 14.33 0.00 0.00 79 1007.3
20260505063817 11 0 0.0 0.0 14.33 0.00 0.00 80 1007.4
20260505063317 11 0 0.0 0.0 14.33 0.00 0.00 80 1007.6
20260505062817 11 0 0.0 0.0 14.33 0.00 0.00 80 1007.7
20260505062318 11 0 0.0 0.0 14.33 0.00 0.00 78 1007.6
20260505061818 11 0 0.0 0.0 14.33 0.00 0.00 79 1007.7
20260505061317 11 0 0.0 0.0 14.33 0.00 0.00 79 1007.6
20260505060817 11 0 0.0 0.0 14.33 0.00 0.00 79 1007.7
20260505060318 11 0 0.0 0.0 14.33 0.00 0.00 78 1007.8
20260505055817 11 0 0.0 0.0 14.33 0.00 0.00 78 1007.8
20260505055317 11 0 0.0 0.0 14.33 0.00 0.00 78 1008.0
20260505054818 11 0 0.0 0.0 14.33 0.00 0.00 78 1007.9
20260505054317 11 0 0.0 0.0 14.33 0.00 0.00 78 1007.9
20260505053817 11 0 0.0 0.0 14.33 0.00 0.00 78 1008.1
20260505053317 11 0 0.0 0.0 14.33 0.00 0.00 78 1008.1
20260505052817 11 0 0.0 0.0 14.33 0.00 0.00 79 1008.1
20260505052319 11 0 0.0 0.0 14.33 0.00 0.00 80 1008.1
20260505051817 11 0 0.0 0.0 14.33 0.00 0.00 79 1008.1
20260505051318 11 58 27.4 37.0 14.33 0.00 0.00 81 1008.2
20260505050817 11 248 27.4 38.6 14.33 0.00 0.00 80 1008.1
20260505050319 11 224 30.6 38.6 14.33 0.00 0.00 81 1008.1